Time,TemperatureF,DewpointF,PressureIn,WindDirection,WindDirectionDegrees,WindSpeedMPH,WindSpeedGustMPH,Humidity,HourlyPrecipIn,Conditions,Clouds,dailyrainin,SoftwareType,DateUTC
2013-02-26 00:00:00,31.8,26.9,30.06,East,98,1.0,1.0,82,0.00,,,0.00,Wunderground v.1.15,2013-02-26 06:00:00,
2013-02-26 00:05:00,31.7,26.8,30.05,East,80,1.0,1.0,82,0.00,,,0.00,Wunderground v.1.15,2013-02-26 06:05:00,
2013-02-26 00:15:00,31.6,27.0,30.05,ENE,72,1.0,2.0,83,0.00,,,0.00,Wunderground v.1.15,2013-02-26 06:15:00,
2013-02-26 00:20:00,31.6,27.0,30.05,ENE,72,1.0,1.0,83,0.00,,,0.00,Wunderground v.1.15,2013-02-26 06:20:00,
2013-02-26 00:30:00,31.4,26.8,30.04,SE,125,1.0,1.0,83,0.00,,,0.00,Wunderground v.1.15,2013-02-26 06:30:00,
2013-02-26 00:35:00,31.4,26.8,30.04,ESE,106,1.0,1.0,83,0.00,,,0.00,Wunderground v.1.15,2013-02-26 06:35:00,
2013-02-26 00:40:00,31.3,26.7,30.04,ESE,104,1.0,1.0,83,0.00,,,0.00,Wunderground v.1.15,2013-02-26 06:40:00,
2013-02-26 00:45:00,31.3,26.7,30.04,East,91,1.0,1.0,83,0.00,,,0.00,Wunderground v.1.15,2013-02-26 06:45:00,
2013-02-26 00:55:00,31.3,26.7,30.04,WSW,246,1.0,1.0,83,0.00,,,0.00,Wunderground v.1.15,2013-02-26 06:55:00,
2013-02-26 01:00:00,31.3,26.7,30.03,NNE,22,0.0,2.0,83,0.00,,,0.00,Wunderground v.1.15,2013-02-26 07:00:00,
2013-02-26 01:05:00,31.3,26.7,30.03,SE,126,1.0,2.0,83,0.00,,,0.00,Wunderground v.1.15,2013-02-26 07:05:00,
2013-02-26 01:15:00,31.3,26.7,30.03,ENE,78,1.0,1.0,83,0.00,,,0.00,Wunderground v.1.15,2013-02-26 07:15:00,
2013-02-26 01:20:00,31.4,26.8,30.03,ESE,117,1.0,7.0,83,0.00,,,0.00,Wunderground v.1.15,2013-02-26 07:20:00,
2013-02-26 01:25:00,31.4,26.8,30.03,East,92,1.0,7.0,83,0.00,,,0.00,Wunderground v.1.15,2013-02-26 07:25:00,
2013-02-26 01:30:00,31.4,26.8,30.03,ESE,118,1.0,1.0,83,0.00,,,0.00,Wunderground v.1.15,2013-02-26 07:30:00,
2013-02-26 01:35:00,31.4,26.8,30.02,NNW,344,1.0,1.0,83,0.00,,,0.00,Wunderground v.1.15,2013-02-26 07:35:00,
2013-02-26 01:45:00,31.3,26.7,30.01,East,99,0.0,1.0,83,0.00,,,0.00,Wunderground v.1.15,2013-02-26 07:45:00,
2013-02-26 01:50:00,31.2,26.6,30.01,NE,49,0.0,1.0,83,0.00,,,0.00,Wunderground v.1.15,2013-02-26 07:50:00,
2013-02-26 01:55:00,31.3,26.7,30.00,ESE,104,1.0,1.0,83,0.00,,,0.00,Wunderground v.1.15,2013-02-26 07:55:00,
2013-02-26 02:00:00,31.3,26.7,30.00,WNW,299,1.0,1.0,83,0.00,,,0.00,Wunderground v.1.15,2013-02-26 08:00:00,
2013-02-26 02:05:00,31.4,26.8,29.99,SE,144,0.0,2.0,83,0.00,,,0.00,Wunderground v.1.15,2013-02-26 08:05:00,
2013-02-26 02:15:00,31.6,27.3,29.98,East,93,1.0,1.0,84,0.00,,,0.00,Wunderground v.1.15,2013-02-26 08:15:00,
2013-02-26 02:20:00,31.7,27.1,29.99,ENE,69,1.0,2.0,83,0.00,,,0.00,Wunderground v.1.15,2013-02-26 08:20:00,
2013-02-26 02:30:00,32.0,27.4,29.98,South,184,1.0,1.0,83,0.00,,,0.00,Wunderground v.1.15,2013-02-26 08:30:00,
2013-02-26 02:35:00,32.0,27.1,29.97,East,101,1.0,1.0,82,0.00,,,0.00,Wunderground v.1.15,2013-02-26 08:35:00,
2013-02-26 02:40:00,32.1,27.5,29.98,SSE,165,1.0,1.0,83,0.00,,,0.00,Wunderground v.1.15,2013-02-26 08:40:00,
2013-02-26 02:45:00,32.1,27.2,29.97,East,98,1.0,2.0,82,0.00,,,0.00,Wunderground v.1.15,2013-02-26 08:45:00,
2013-02-26 02:50:00,32.2,27.3,29.97,East,89,1.0,5.0,82,0.00,,,0.00,Wunderground v.1.15,2013-02-26 08:50:00,
2013-02-26 03:00:00,32.1,27.2,29.95,East,80,1.0,1.0,82,0.00,,,0.00,Wunderground v.1.15,2013-02-26 09:00:00,
2013-02-26 03:05:00,32.2,27.3,29.94,NW,322,1.0,1.0,82,0.00,,,0.00,Wunderground v.1.15,2013-02-26 09:05:00,
2013-02-26 03:15:00,32.2,27.3,29.94,ENE,61,1.0,3.0,82,0.00,,,0.00,Wunderground v.1.15,2013-02-26 09:15:00,
2013-02-26 03:20:00,32.1,27.5,29.94,NNE,19,1.0,2.0,83,0.00,,,0.00,Wunderground v.1.15,2013-02-26 09:20:00,
2013-02-26 03:25:00,32.2,27.6,29.94,ENE,67,1.0,2.0,83,0.00,,,0.00,Wunderground v.1.15,2013-02-26 09:25:00,
2013-02-26 03:35:00,32.1,27.5,29.94,SE,142,1.0,9.0,83,0.00,,,0.00,Wunderground v.1.15,2013-02-26 09:35:00,
2013-02-26 03:45:00,32.2,27.6,29.93,East,90,1.0,2.0,83,0.00,,,0.00,Wunderground v.1.15,2013-02-26 09:45:00,
2013-02-26 03:50:00,32.2,27.6,29.93,NW,315,1.0,1.0,83,0.00,,,0.00,Wunderground v.1.15,2013-02-26 09:50:00,
2013-02-26 03:55:00,32.1,27.5,29.92,East,90,1.0,1.0,83,0.00,,,0.00,Wunderground v.1.15,2013-02-26 09:55:00,
2013-02-26 04:00:00,32.1,27.8,29.93,ESE,115,1.0,1.0,84,0.00,,,0.00,Wunderground v.1.15,2013-02-26 10:00:00,
2013-02-26 04:05:00,32.0,27.7,29.93,East,79,1.0,1.0,84,0.00,,,0.00,Wunderground v.1.15,2013-02-26 10:05:00,
2013-02-26 04:15:00,32.0,27.7,29.92,ENE,65,1.0,1.0,84,0.00,,,0.00,Wunderground v.1.15,2013-02-26 10:15:00,
2013-02-26 04:20:00,32.1,27.8,29.92,ENE,59,2.0,2.0,84,0.00,,,0.00,Wunderground v.1.15,2013-02-26 10:20:00,
2013-02-26 04:30:00,32.2,27.9,29.92,NE,54,1.0,1.0,84,0.00,,,0.00,Wunderground v.1.15,2013-02-26 10:30:00,
2013-02-26 04:35:00,32.2,27.9,29.92,North,349,1.0,1.0,84,0.00,,,0.00,Wunderground v.1.15,2013-02-26 10:35:00,
2013-02-26 04:40:00,32.1,27.8,29.91,NW,323,1.0,1.0,84,0.00,,,0.00,Wunderground v.1.15,2013-02-26 10:40:00,
2013-02-26 04:45:00,32.1,27.8,29.91,WNW,296,1.0,1.0,84,0.00,,,0.00,Wunderground v.1.15,2013-02-26 10:45:00,
2013-02-26 04:55:00,32.0,27.7,29.90,NE,49,1.0,3.0,84,0.00,,,0.00,Wunderground v.1.15,2013-02-26 10:55:00,
2013-02-26 05:00:00,32.0,27.7,29.89,NE,48,1.0,1.0,84,0.00,,,0.00,Wunderground v.1.15,2013-02-26 11:00:00,
2013-02-26 05:05:00,32.0,27.7,29.89,WSW,258,2.0,2.0,84,0.00,,,0.00,Wunderground v.1.15,2013-02-26 11:05:00,
2013-02-26 05:15:00,32.2,27.9,29.87,North,355,3.0,3.0,84,0.00,,,0.00,Wunderground v.1.15,2013-02-26 11:15:00,
2013-02-26 05:20:00,32.2,27.9,29.87,ESE,115,3.0,3.0,84,0.00,,,0.00,Wunderground v.1.15,2013-02-26 11:20:00,
2013-02-26 05:25:00,32.3,28.0,29.87,SE,134,2.0,3.0,84,0.00,,,0.00,Wunderground v.1.15,2013-02-26 11:25:00,
2013-02-26 05:35:00,32.4,28.1,29.87,NE,56,2.0,4.0,84,0.00,,,0.00,Wunderground v.1.15,2013-02-26 11:35:00,
2013-02-26 05:40:00,32.5,28.2,29.86,ENE,67,2.0,3.0,84,0.00,,,0.00,Wunderground v.1.15,2013-02-26 11:40:00,
2013-02-26 05:45:00,32.5,28.2,29.85,ENE,65,2.0,5.0,84,0.00,,,0.00,Wunderground v.1.15,2013-02-26 11:45:00,
2013-02-26 05:50:00,32.5,27.9,29.85,WNW,300,3.0,3.0,83,0.00,,,0.00,Wunderground v.1.15,2013-02-26 11:50:00,
2013-02-26 06:00:00,32.5,27.9,29.82,NNE,22,2.0,2.0,83,0.00,,,0.00,Wunderground v.1.15,2013-02-26 12:00:00,
2013-02-26 06:05:00,32.4,27.8,29.82,NNE,22,3.0,9.0,83,0.00,,,0.00,Wunderground v.1.15,2013-02-26 12:05:00,
2013-02-26 06:15:00,32.5,27.9,29.81,North,11,4.0,4.0,83,0.00,,,0.00,Wunderground v.1.15,2013-02-26 12:15:00,
2013-02-26 06:20:00,32.5,27.9,29.81,North,360,4.0,4.0,83,0.00,,,0.00,Wunderground v.1.15,2013-02-26 12:20:00,
2013-02-26 06:25:00,32.6,28.0,29.81,ENE,65,3.0,4.0,83,0.00,,,0.00,Wunderground v.1.15,2013-02-26 12:25:00,
2013-02-26 06:30:00,32.6,28.0,29.81,East,94,2.0,4.0,83,0.00,,,0.00,Wunderground v.1.15,2013-02-26 12:30:00,
2013-02-26 06:35:00,32.7,27.8,29.82,North,355,3.0,4.0,82,0.00,,,0.00,Wunderground v.1.15,2013-02-26 12:35:00,
2013-02-26 06:45:00,32.9,28.0,29.83,SSE,152,3.0,3.0,82,0.00,,,0.00,Wunderground v.1.15,2013-02-26 12:45:00,
2013-02-26 06:50:00,33.0,27.8,29.84,NE,54,3.0,3.0,81,0.00,,,0.00,Wunderground v.1.15,2013-02-26 12:50:00,
2013-02-26 07:00:00,33.1,27.6,29.86,SSE,157,4.0,4.0,80,0.00,,,0.00,Wunderground v.1.15,2013-02-26 13:00:00,
2013-02-26 07:05:00,33.2,27.7,29.85,East,90,4.0,4.0,80,0.00,,,0.00,Wunderground v.1.15,2013-02-26 13:05:00,
2013-02-26 07:15:00,33.1,27.6,29.84,ENE,67,3.0,3.0,80,0.00,,,0.00,Wunderground v.1.15,2013-02-26 13:15:00,
2013-02-26 07:25:00,33.0,27.5,29.83,NE,49,3.0,3.0,80,0.00,,,0.00,Wunderground v.1.15,2013-02-26 13:25:00,
2013-02-26 07:30:00,33.0,27.5,29.83,WSW,252,2.0,5.0,80,0.00,,,0.00,Wunderground v.1.15,2013-02-26 13:30:00,
2013-02-26 07:35:00,33.0,27.5,29.83,ENE,78,2.0,5.0,80,0.00,,,0.00,Wunderground v.1.15,2013-02-26 13:35:00,
2013-02-26 07:40:00,33.2,27.7,29.84,ESE,114,3.0,6.0,80,0.00,,,0.00,Wunderground v.1.15,2013-02-26 13:40:00,
2013-02-26 07:45:00,33.3,27.8,29.84,SSE,148,2.0,6.0,80,0.00,,,0.00,Wunderground v.1.15,2013-02-26 13:45:00,
2013-02-26 07:50:00,33.5,27.7,29.83,WSW,254,2.0,2.0,79,0.00,,,0.00,Wunderground v.1.15,2013-02-26 13:50:00,
2013-02-26 08:00:00,33.6,27.8,29.83,North,350,2.0,2.0,79,0.00,,,0.00,Wunderground v.1.15,2013-02-26 14:00:00,
2013-02-26 08:05:00,33.6,27.8,29.83,SE,132,2.0,4.0,79,0.00,,,0.00,Wunderground v.1.15,2013-02-26 14:05:00,
2013-02-26 08:15:00,33.7,27.6,29.83,North,350,3.0,7.0,78,0.00,,,0.00,Wunderground v.1.15,2013-02-26 14:15:00,
2013-02-26 08:20:00,33.7,27.6,29.83,SSE,168,3.0,3.0,78,0.00,,,0.00,Wunderground v.1.15,2013-02-26 14:20:00,
2013-02-26 08:25:00,33.8,27.7,29.82,East,81,3.0,4.0,78,0.00,,,0.00,Wunderground v.1.15,2013-02-26 14:25:00,
2013-02-26 08:30:00,33.8,27.4,29.83,SSE,148,3.0,3.0,77,0.00,,,0.00,Wunderground v.1.15,2013-02-26 14:30:00,
2013-02-26 08:35:00,33.8,27.4,29.82,NNW,338,4.0,5.0,77,0.00,,,0.01,Wunderground v.1.15,2013-02-26 14:35:00,
2013-02-26 08:40:00,33.8,27.4,29.82,ESE,102,3.0,3.0,77,0.00,,,0.01,Wunderground v.1.15,2013-02-26 14:40:00,
2013-02-26 08:45:00,33.8,27.4,29.82,North,360,3.0,4.0,77,0.00,,,0.01,Wunderground v.1.15,2013-02-26 14:45:00,
2013-02-26 08:55:00,33.9,27.4,29.81,East,92,3.0,3.0,77,0.00,,,0.01,Wunderground v.1.15,2013-02-26 14:55:00,
2013-02-26 09:00:00,33.9,27.4,29.81,ESE,105,3.0,3.0,77,0.00,,,0.01,Wunderground v.1.15,2013-02-26 15:00:00,
2013-02-26 09:05:00,34.1,27.6,29.81,WNW,287,2.0,4.0,77,0.00,,,0.01,Wunderground v.1.15,2013-02-26 15:05:00,
2013-02-26 09:15:00,34.4,27.6,29.80,WNW,293,3.0,6.0,76,0.00,,,0.01,Wunderground v.1.15,2013-02-26 15:15:00,
2013-02-26 09:20:00,34.5,27.7,29.80,ESE,119,2.0,2.0,76,0.00,,,0.01,Wunderground v.1.15,2013-02-26 15:20:00,
2013-02-26 09:25:00,34.6,27.5,29.79,NE,38,2.0,2.0,75,0.00,,,0.01,Wunderground v.1.15,2013-02-26 15:25:00,
2013-02-26 09:30:00,34.4,27.3,29.79,WNW,294,3.0,3.0,75,0.00,,,0.01,Wunderground v.1.15,2013-02-26 15:30:00,
2013-02-26 09:35:00,34.4,27.3,29.78,SSE,159,3.0,3.0,75,0.00,,,0.01,Wunderground v.1.15,2013-02-26 15:35:00,
2013-02-26 09:45:00,34.4,27.3,29.78,ENE,71,3.0,3.0,75,0.00,,,0.01,Wunderground v.1.15,2013-02-26 15:45:00,
2013-02-26 09:50:00,34.4,27.3,29.78,North,360,4.0,4.0,75,0.00,,,0.01,Wunderground v.1.15,2013-02-26 15:50:00,
2013-02-26 09:55:00,34.4,27.3,29.77,NNW,340,4.0,7.0,75,0.00,,,0.01,Wunderground v.1.15,2013-02-26 15:55:00,
2013-02-26 10:00:00,34.4,27.3,29.77,North,350,4.0,4.0,75,0.00,,,0.01,Wunderground v.1.15,2013-02-26 16:00:00,
2013-02-26 10:05:00,34.3,27.5,29.76,North,360,4.0,7.0,76,0.00,,,0.01,Wunderground v.1.15,2013-02-26 16:05:00,
2013-02-26 10:15:00,34.4,27.6,29.76,WNW,302,4.0,7.0,76,0.00,,,0.01,Wunderground v.1.15,2013-02-26 16:15:00,
2013-02-26 10:25:00,34.4,27.6,29.76,NW,311,3.0,4.0,76,0.00,,,0.01,Wunderground v.1.15,2013-02-26 16:25:00,
2013-02-26 10:30:00,34.2,27.4,29.76,NNW,346,4.0,5.0,76,0.00,,,0.01,Wunderground v.1.15,2013-02-26 16:30:00,
2013-02-26 10:35:00,34.2,27.4,29.76,NNW,329,4.0,5.0,76,0.00,,,0.01,Wunderground v.1.15,2013-02-26 16:35:00,
2013-02-26 10:45:00,34.2,27.4,29.76,NNE,31,4.0,4.0,76,0.00,,,0.01,Wunderground v.1.15,2013-02-26 16:45:00,
2013-02-26 10:50:00,34.2,27.4,29.76,ESE,113,3.0,3.0,76,0.00,,,0.01,Wunderground v.1.15,2013-02-26 16:50:00,
2013-02-26 10:55:00,34.2,27.4,29.76,North,5,3.0,4.0,76,0.00,,,0.01,Wunderground v.1.15,2013-02-26 16:55:00,
2013-02-26 11:00:00,34.1,27.3,29.76,ESE,115,3.0,4.0,76,0.00,,,0.01,Wunderground v.1.15,2013-02-26 17:00:00,
2013-02-26 11:05:00,34.1,27.0,29.76,SW,217,4.0,4.0,75,0.00,,,0.01,Wunderground v.1.15,2013-02-26 17:05:00,
2013-02-26 11:15:00,34.4,27.3,29.76,East,88,2.0,4.0,75,0.00,,,0.01,Wunderground v.1.15,2013-02-26 17:15:00,
2013-02-26 11:25:00,34.4,27.0,29.76,NNE,17,4.0,7.0,74,0.00,,,0.01,Wunderground v.1.15,2013-02-26 17:25:00,
2013-02-26 11:30:00,34.4,27.0,29.75,SE,126,4.0,4.0,74,0.00,,,0.01,Wunderground v.1.15,2013-02-26 17:30:00,
2013-02-26 11:35:00,34.4,27.0,29.75,NNW,341,4.0,4.0,74,0.00,,,0.01,Wunderground v.1.15,2013-02-26 17:35:00,
2013-02-26 11:40:00,34.4,27.0,29.74,NE,38,4.0,8.0,74,0.00,,,0.01,Wunderground v.1.15,2013-02-26 17:40:00,
2013-02-26 11:45:00,34.4,26.6,29.75,NNW,331,4.0,8.0,73,0.00,,,0.01,Wunderground v.1.15,2013-02-26 17:45:00,
2013-02-26 11:55:00,34.4,27.0,29.75,NNW,327,3.0,3.0,74,0.00,,,0.01,Wunderground v.1.15,2013-02-26 17:55:00,
2013-02-26 12:00:00,34.4,27.0,29.75,NNW,329,3.0,4.0,74,0.00,,,0.01,Wunderground v.1.15,2013-02-26 18:00:00,
2013-02-26 12:05:00,34.2,26.8,29.75,NNE,23,3.0,4.0,74,0.00,,,0.01,Wunderground v.1.15,2013-02-26 18:05:00,
2013-02-26 12:15:00,34.1,26.7,29.75,ESE,111,3.0,5.0,74,0.00,,,0.01,Wunderground v.1.15,2013-02-26 18:15:00,
2013-02-26 12:20:00,34.1,26.7,29.75,NNE,18,3.0,3.0,74,0.00,,,0.01,Wunderground v.1.15,2013-02-26 18:20:00,
2013-02-26 13:05:00,32.9,26.8,29.71,NNW,345,6.0,6.0,78,0.00,,,0.01,Wunderground v.1.15,2013-02-26 19:05:00,
2013-02-26 13:15:00,33.1,26.4,29.71,North,351,6.0,11.0,76,0.00,,,0.01,Wunderground v.1.15,2013-02-26 19:15:00,
2013-02-26 13:20:00,33.2,26.5,29.70,NW,315,5.0,5.0,76,0.00,,,0.01,Wunderground v.1.15,2013-02-26 19:20:00,
2013-02-26 13:30:00,33.6,26.8,29.69,NE,42,5.0,9.0,76,0.00,,,0.01,Wunderground v.1.15,2013-02-26 19:30:00,
2013-02-26 13:35:00,33.5,26.7,29.69,ENE,69,5.0,9.0,76,0.00,,,0.01,Wunderground v.1.15,2013-02-26 19:35:00,
2013-02-26 13:40:00,33.4,26.6,29.69,ESE,107,6.0,6.0,76,0.00,,,0.01,Wunderground v.1.15,2013-02-26 19:40:00,
2013-02-26 13:50:00,33.2,26.5,29.68,NW,323,7.0,8.0,76,0.00,,,0.01,Wunderground v.1.15,2013-02-26 19:50:00,
2013-02-26 13:55:00,33.0,26.6,29.68,NE,37,7.0,13.0,77,0.00,,,0.01,Wunderground v.1.15,2013-02-26 19:55:00,
2013-02-26 14:00:00,32.3,26.5,29.68,NE,34,8.0,8.0,79,0.00,,,0.01,Wunderground v.1.15,2013-02-26 20:00:00,
2013-02-26 14:05:00,31.7,26.8,29.68,NW,320,7.0,10.0,82,0.00,,,0.01,Wunderground v.1.15,2013-02-26 20:05:00,
2013-02-26 14:15:00,31.3,26.7,29.69,NNW,336,7.0,7.0,83,0.00,,,0.01,Wunderground v.1.15,2013-02-26 20:15:00,
2013-02-26 14:20:00,31.2,26.9,29.69,NE,39,6.0,6.0,84,0.00,,,0.01,Wunderground v.1.15,2013-02-26 20:20:00,
2013-02-26 14:25:00,31.2,26.9,29.69,NE,45,7.0,7.0,84,0.00,,,0.01,Wunderground v.1.15,2013-02-26 20:25:00,
2013-02-26 14:35:00,30.8,27.1,29.69,ENE,75,5.0,6.0,86,0.00,,,0.01,Wunderground v.1.15,2013-02-26 20:35:00,
2013-02-26 14:40:00,30.6,27.2,29.69,North,360,6.0,9.0,87,0.00,,,0.01,Wunderground v.1.15,2013-02-26 20:40:00,
2013-02-26 14:45:00,30.4,27.3,29.69,North,351,6.0,10.0,88,0.00,,,0.01,Wunderground v.1.15,2013-02-26 20:45:00,
2013-02-26 14:50:00,30.2,27.3,29.68,NNW,329,7.0,10.0,89,0.00,,,0.01,Wunderground v.1.15,2013-02-26 20:50:00,
2013-02-26 15:00:00,29.9,27.3,29.69,NW,314,6.0,7.0,90,0.00,,,0.01,Wunderground v.1.15,2013-02-26 21:00:00,
2013-02-26 15:05:00,29.8,27.5,29.70,North,10,6.0,7.0,91,0.00,,,0.01,Wunderground v.1.15,2013-02-26 21:05:00,
2013-02-26 15:15:00,29.5,27.5,29.70,NNE,17,5.0,6.0,92,0.00,,,0.01,Wunderground v.1.15,2013-02-26 21:15:00,
2013-02-26 15:25:00,29.3,27.3,29.70,NNE,24,6.0,7.0,92,0.00,,,0.01,Wunderground v.1.15,2013-02-26 21:25:00,
2013-02-26 15:30:00,29.3,27.5,29.71,NNE,17,4.0,6.0,93,0.00,,,0.01,Wunderground v.1.15,2013-02-26 21:30:00,
2013-02-26 15:35:00,29.3,27.5,29.70,NW,326,4.0,6.0,93,0.00,,,0.01,Wunderground v.1.15,2013-02-26 21:35:00,
2013-02-26 15:45:00,29.3,27.5,29.70,NW,326,4.0,7.0,93,0.00,,,0.01,Wunderground v.1.15,2013-02-26 21:45:00,
2013-02-26 15:50:00,29.2,27.7,29.69,NNW,329,5.0,5.0,94,0.00,,,0.01,Wunderground v.1.15,2013-02-26 21:50:00,
2013-02-26 16:00:00,29.2,27.7,29.70,NNW,345,5.0,6.0,94,0.00,,,0.01,Wunderground v.1.15,2013-02-26 22:00:00,
2013-02-26 16:05:00,29.2,27.7,29.70,NNW,327,5.0,12.0,94,0.00,,,0.01,Wunderground v.1.15,2013-02-26 22:05:00,
2013-02-26 16:15:00,29.1,27.6,29.70,NE,52,7.0,7.0,94,0.00,,,0.01,Wunderground v.1.15,2013-02-26 22:15:00,
2013-02-26 16:20:00,29.2,27.7,29.71,NNW,344,5.0,15.0,94,0.00,,,0.01,Wunderground v.1.15,2013-02-26 22:20:00,
2013-02-26 16:25:00,29.1,27.6,29.70,North,355,6.0,15.0,94,0.00,,,0.01,Wunderground v.1.15,2013-02-26 22:25:00,
2013-02-26 16:30:00,29.1,27.6,29.71,NNW,327,6.0,9.0,94,0.00,,,0.01,Wunderground v.1.15,2013-02-26 22:30:00,
2013-02-26 16:35:00,29.1,27.6,29.71,NNW,340,6.0,9.0,94,0.00,,,0.01,Wunderground v.1.15,2013-02-26 22:35:00,
2013-02-26 16:40:00,29.2,27.7,29.71,NE,34,7.0,7.0,94,0.00,,,0.01,Wunderground v.1.15,2013-02-26 22:40:00,
2013-02-26 16:45:00,29.2,27.9,29.70,North,360,6.0,7.0,95,0.00,,,0.01,Wunderground v.1.15,2013-02-26 22:45:00,
2013-02-26 16:55:00,29.1,27.8,29.71,NW,308,6.0,10.0,95,0.00,,,0.01,Wunderground v.1.15,2013-02-26 22:55:00,
2013-02-26 17:05:00,29.1,27.8,29.71,NNW,348,7.0,13.0,95,0.00,,,0.01,Wunderground v.1.15,2013-02-26 23:05:00,
2013-02-26 17:15:00,29.2,27.9,29.71,NNW,344,7.0,13.0,95,0.00,,,0.01,Wunderground v.1.15,2013-02-26 23:15:00,
2013-02-26 17:20:00,29.2,27.9,29.71,WNW,287,6.0,6.0,95,0.00,,,0.01,Wunderground v.1.15,2013-02-26 23:20:00,
2013-02-26 17:25:00,29.2,27.9,29.72,NNW,327,6.0,6.0,95,0.00,,,0.01,Wunderground v.1.15,2013-02-26 23:25:00,
2013-02-26 17:30:00,29.2,27.9,29.72,NNW,345,5.0,5.0,95,0.00,,,0.01,Wunderground v.1.15,2013-02-26 23:30:00,
2013-02-26 17:40:00,29.2,27.9,29.72,North,5,5.0,5.0,95,0.00,,,0.01,Wunderground v.1.15,2013-02-26 23:40:00,
2013-02-26 17:45:00,29.1,27.8,29.72,NNW,342,5.0,6.0,95,0.00,,,0.01,Wunderground v.1.15,2013-02-26 23:45:00,
2013-02-26 17:50:00,29.1,27.8,29.72,NNE,17,6.0,6.0,95,0.00,,,0.01,Wunderground v.1.15,2013-02-26 23:50:00,
2013-02-26 17:55:00,29.0,27.7,29.72,West,280,6.0,6.0,95,0.00,,,0.01,Wunderground v.1.15,2013-02-26 23:55:00,
2013-02-26 18:00:00,29.1,27.8,29.73,NNW,337,6.0,6.0,95,0.00,,,0.01,Wunderground v.1.15,2013-02-27 00:00:00,
2013-02-26 18:05:00,29.1,27.8,29.73,North,360,5.0,6.0,95,0.00,,,0.01,Wunderground v.1.15,2013-02-27 00:05:00,
2013-02-26 18:15:00,29.2,27.9,29.73,North,360,5.0,7.0,95,0.00,,,0.01,Wunderground v.1.15,2013-02-27 00:15:00,
2013-02-26 18:25:00,29.3,28.0,29.73,North,350,4.0,11.0,95,0.00,,,0.01,Wunderground v.1.15,2013-02-27 00:25:00,
2013-02-26 18:30:00,29.3,28.0,29.73,NW,320,5.0,7.0,95,0.00,,,0.01,Wunderground v.1.15,2013-02-27 00:30:00,
2013-02-26 18:35:00,29.4,28.1,29.73,NNW,346,7.0,8.0,95,0.00,,,0.01,Wunderground v.1.15,2013-02-27 00:35:00,
2013-02-26 18:40:00,29.4,28.1,29.73,North,355,6.0,15.0,95,0.00,,,0.01,Wunderground v.1.15,2013-02-27 00:40:00,
2013-02-26 18:45:00,29.4,28.1,29.74,NNW,336,5.0,15.0,95,0.00,,,0.01,Wunderground v.1.15,2013-02-27 00:45:00,
2013-02-26 18:50:00,29.4,28.1,29.73,North,355,5.0,9.0,95,0.00,,,0.01,Wunderground v.1.15,2013-02-27 00:50:00,
2013-02-26 19:00:00,29.5,28.2,29.73,NNW,339,5.0,5.0,95,0.00,,,0.01,Wunderground v.1.15,2013-02-27 01:00:00,
2013-02-26 19:05:00,29.5,28.2,29.73,North,350,6.0,6.0,95,0.00,,,0.01,Wunderground v.1.15,2013-02-27 01:05:00,
2013-02-26 19:15:00,29.6,28.3,29.73,North,349,5.0,6.0,95,0.00,,,0.01,Wunderground v.1.15,2013-02-27 01:15:00,
2013-02-26 19:25:00,29.6,28.3,29.73,NNW,341,4.0,5.0,95,0.00,,,0.01,Wunderground v.1.15,2013-02-27 01:25:00,
2013-02-26 19:30:00,29.6,28.3,29.73,North,355,5.0,5.0,95,0.00,,,0.01,Wunderground v.1.15,2013-02-27 01:30:00,
2013-02-26 19:35:00,29.6,28.3,29.73,NW,325,5.0,5.0,95,0.00,,,0.01,Wunderground v.1.15,2013-02-27 01:35:00,
2013-02-26 19:40:00,29.6,28.6,29.72,North,351,5.0,5.0,96,0.00,,,0.01,Wunderground v.1.15,2013-02-27 01:40:00,
2013-02-26 19:50:00,29.6,28.6,29.73,NNW,348,4.0,9.0,96,0.00,,,0.01,Wunderground v.1.15,2013-02-27 01:50:00,
2013-02-26 19:55:00,29.6,28.6,29.72,North,9,5.0,9.0,96,0.00,,,0.01,Wunderground v.1.15,2013-02-27 01:55:00,
2013-02-26 20:00:00,29.6,28.6,29.72,NNE,20,7.0,7.0,96,0.00,,,0.01,Wunderground v.1.15,2013-02-27 02:00:00,
2013-02-26 20:05:00,29.6,28.6,29.72,NNW,341,6.0,7.0,96,0.00,,,0.01,Wunderground v.1.15,2013-02-27 02:05:00,
2013-02-26 20:15:00,29.6,28.6,29.73,NNW,345,5.0,7.0,96,0.00,,,0.01,Wunderground v.1.15,2013-02-27 02:15:00,
2013-02-26 20:25:00,29.6,28.6,29.73,NW,323,5.0,6.0,96,0.00,,,0.01,Wunderground v.1.15,2013-02-27 02:25:00,
2013-02-26 20:30:00,29.6,28.6,29.72,NNE,23,5.0,5.0,96,0.00,,,0.01,Wunderground v.1.15,2013-02-27 02:30:00,
2013-02-26 20:35:00,29.6,28.6,29.72,NW,324,5.0,6.0,96,0.00,,,0.01,Wunderground v.1.15,2013-02-27 02:35:00,
2013-02-26 20:40:00,29.6,28.6,29.72,NNW,334,5.0,8.0,96,0.00,,,0.01,Wunderground v.1.15,2013-02-27 02:40:00,
2013-02-26 20:50:00,29.6,28.6,29.72,North,360,5.0,6.0,96,0.00,,,0.01,Wunderground v.1.15,2013-02-27 02:50:00,
2013-02-26 20:55:00,29.6,28.6,29.72,NNW,346,6.0,6.0,96,0.00,,,0.01,Wunderground v.1.15,2013-02-27 02:55:00,
2013-02-26 21:05:00,29.5,28.5,29.72,NNW,342,4.0,6.0,96,0.00,,,0.01,Wunderground v.1.15,2013-02-27 03:05:00,
2013-02-26 21:15:00,29.5,28.5,29.72,NNW,336,5.0,6.0,96,0.00,,,0.01,Wunderground v.1.15,2013-02-27 03:15:00,
2013-02-26 21:25:00,29.5,28.5,29.72,NNW,341,5.0,7.0,96,0.00,,,0.01,Wunderground v.1.15,2013-02-27 03:25:00,
2013-02-26 21:30:00,29.5,28.5,29.72,North,355,5.0,6.0,96,0.00,,,0.01,Wunderground v.1.15,2013-02-27 03:30:00,
2013-02-26 21:35:00,29.4,28.4,29.72,North,5,5.0,6.0,96,0.00,,,0.01,Wunderground v.1.15,2013-02-27 03:35:00,
2013-02-26 21:45:00,29.4,28.4,29.72,NW,325,5.0,8.0,96,0.00,,,0.01,Wunderground v.1.15,2013-02-27 03:45:00,
2013-02-26 21:55:00,29.4,28.4,29.72,North,360,3.0,6.0,96,0.00,,,0.01,Wunderground v.1.15,2013-02-27 03:55:00,
2013-02-26 22:00:00,29.5,28.5,29.73,North,355,4.0,9.0,96,0.00,,,0.01,Wunderground v.1.15,2013-02-27 04:00:00,
2013-02-26 22:05:00,29.4,28.4,29.73,NNW,327,5.0,9.0,96,0.00,,,0.01,Wunderground v.1.15,2013-02-27 04:05:00,
2013-02-26 22:15:00,29.5,28.5,29.72,North,350,4.0,4.0,96,0.00,,,0.01,Wunderground v.1.15,2013-02-27 04:15:00,
2013-02-26 22:20:00,29.5,28.5,29.72,North,360,5.0,5.0,96,0.00,,,0.01,Wunderground v.1.15,2013-02-27 04:20:00,
2013-02-26 22:25:00,29.5,28.5,29.72,NNW,336,4.0,5.0,96,0.00,,,0.01,Wunderground v.1.15,2013-02-27 04:25:00,
2013-02-26 22:30:00,29.4,28.4,29.72,NNW,331,3.0,9.0,96,0.00,,,0.01,Wunderground v.1.15,2013-02-27 04:30:00,
2013-02-26 22:35:00,29.4,28.4,29.72,NNW,346,3.0,9.0,96,0.00,,,0.01,Wunderground v.1.15,2013-02-27 04:35:00,
2013-02-26 22:45:00,29.4,28.4,29.73,NNW,340,4.0,4.0,96,0.00,,,0.01,Wunderground v.1.15,2013-02-27 04:45:00,
2013-02-26 22:50:00,29.4,28.4,29.73,North,10,4.0,4.0,96,0.00,,,0.01,Wunderground v.1.15,2013-02-27 04:50:00,
2013-02-26 22:55:00,29.4,28.4,29.72,NNW,347,3.0,4.0,96,0.00,,,0.01,Wunderground v.1.15,2013-02-27 04:55:00,
2013-02-26 23:00:00,29.4,28.4,29.72,NNE,15,3.0,6.0,96,0.00,,,0.01,Wunderground v.1.15,2013-02-27 05:00:00,
2013-02-26 23:05:00,29.3,28.3,29.73,NW,315,4.0,6.0,96,0.00,,,0.01,Wunderground v.1.15,2013-02-27 05:05:00,
2013-02-26 23:10:00,29.3,28.3,29.73,North,349,5.0,5.0,96,0.00,,,0.01,Wunderground v.1.15,2013-02-27 05:10:00,
2013-02-26 23:15:00,29.3,28.3,29.73,North,350,4.0,5.0,96,0.00,,,0.01,Wunderground v.1.15,2013-02-27 05:15:00,
2013-02-26 23:20:00,29.3,28.3,29.73,North,10,3.0,4.0,96,0.00,,,0.01,Wunderground v.1.15,2013-02-27 05:20:00,
2013-02-26 23:25:00,29.2,28.2,29.73,NW,322,5.0,5.0,96,0.00,,,0.01,Wunderground v.1.15,2013-02-27 05:25:00,
2013-02-26 23:30:00,29.2,28.2,29.72,NNW,338,5.0,5.0,96,0.00,,,0.01,Wunderground v.1.15,2013-02-27 05:30:00,
2013-02-26 23:35:00,29.2,28.2,29.73,North,360,4.0,5.0,96,0.00,,,0.01,Wunderground v.1.15,2013-02-27 05:35:00,
2013-02-26 23:40:00,29.2,28.2,29.73,NNW,333,3.0,4.0,96,0.00,,,0.01,Wunderground v.1.15,2013-02-27 05:40:00,
2013-02-26 23:50:00,29.2,28.2,29.73,NW,323,4.0,5.0,96,0.00,,,0.01,Wunderground v.1.15,2013-02-27 05:50:00,
2013-02-26 23:55:00,29.1,28.1,29.73,NNW,342,3.0,5.0,96,0.00,,,0.01,Wunderground v.1.15,2013-02-27 05:55:00,